When you browse on this site, cookies collect data to enhance your experience and personalize the content and advertising you see.
Visit our Privacy Policy to learn more. By continuing to use the site, you agree to this use of cookies and data.
  • Em Portugal
  • Lista de países
  • Para 7 dias
  • Temperatura da água
  • Mapas de satélite
  • Mapa do tempo
  • Widgets de tempo
  • user-avatar
    Iniciar Sessão

    Previsão horária em Artashat

    Hoje, 17 Janeiro, Quinta-feira

    Tempo Temperatura Precipitação Vento Pressão Humidade
    00:00 -6°C° 0 mm 1 m/s 588 mmHg 68%
    01:00 -6°C° 0.1 mm 1 m/s 588 mmHg 70%
    02:00 -6°C° 0.1 mm 1 m/s 588 mmHg 72%
    03:00 -6°C° 0 mm 1 m/s 587 mmHg 69%
    04:00 -6°C° 0.1 mm 1 m/s 587 mmHg 71%
    05:00 -6°C° 0.1 mm 1 m/s 587 mmHg 73%
    06:00 -7°C° 0.1 mm 2 m/s 587 mmHg 75%
    07:00 -6°C° 0.1 mm 1 m/s 587 mmHg 74%
    08:00 -6°C° 0.1 mm 1 m/s 587 mmHg 73%
    09:00 -6°C° 0.1 mm 1 m/s 588 mmHg 73%
    10:00 -4°C° 0 mm 1 m/s 588 mmHg 71%
    11:00 -5°C° 0 mm 2 m/s 588 mmHg 70%
    12:00 -4°C° 0 mm 2 m/s 589 mmHg 68%
    13:00 -4°C° 0.1 mm 2 m/s 589 mmHg 70%
    14:00 -5°C° 0.1 mm 3 m/s 589 mmHg 72%
    15:00 -5°C° 0.1 mm 4 m/s 589 mmHg 74%
    16:00 -7°C° 0.2 mm 4 m/s 590 mmHg 76%
    17:00 -8°C° 0.2 mm 4 m/s 590 mmHg 78%
    18:00 -9°C° 0.2 mm 4 m/s 591 mmHg 80%
    19:00 -11°C° 0.1 mm 5 m/s 591 mmHg 79%
    20:00 -11°C° 0.1 mm 5 m/s 591 mmHg 77%
    21:00 -12°C° 0.1 mm 5 m/s 592 mmHg 76%
    22:00 -12°C° 0 mm 5 m/s 592 mmHg 74%
    23:00 -12°C° 0 mm 4 m/s 592 mmHg 73%

    Amanhã, 18 Janeiro, Sexta-feira

    Tempo Temperatura Precipitação Vento Pressão Humidade
    00:00 -12°C° 0 mm 4 m/s 593 mmHg 71%
    01:00 -14°C° 0 mm 4 m/s 593 mmHg 70%
    02:00 -13°C° 0 mm 3 m/s 593 mmHg 68%
    03:00 -13°C° 0 mm 3 m/s 594 mmHg 67%
    04:00 -13°C° 0 mm 3 m/s 594 mmHg 66%
    05:00 -14°C° 0 mm 3 m/s 594 mmHg 66%
    06:00 -14°C° 0 mm 3 m/s 595 mmHg 65%
    07:00 -13°C° 0 mm 3 m/s 595 mmHg 64%
    08:00 -13°C° 0 mm 3 m/s 596 mmHg 63%
    09:00 -13°C° 0 mm 3 m/s 597 mmHg 62%
    10:00 -9°C° 0 mm 2 m/s 597 mmHg 61%
    11:00 -8°C° 0 mm 2 m/s 597 mmHg 59%
    12:00 -7°C° 0 mm 2 m/s 598 mmHg 58%
    13:00 -7°C° 0 mm 2 m/s 598 mmHg 58%
    14:00 -7°C° 0 mm 2 m/s 598 mmHg 59%
    15:00 -6°C° 0 mm 1 m/s 598 mmHg 60%
    16:00 -7°C° 0 mm 1 m/s 598 mmHg 61%
    17:00 -8°C° 0 mm 1 m/s 597 mmHg 62%
    18:00 -10°C° 0 mm 1 m/s 597 mmHg 63%
    19:00 -10°C° 0 mm 1 m/s 598 mmHg 62%
    20:00 -10°C° 0 mm 1 m/s 598 mmHg 61%
    21:00 -13°C° 0 mm 2 m/s 598 mmHg 61%
    22:00 -13°C° 0 mm 2 m/s 598 mmHg 60%
    23:00 -13°C° 0 mm 2 m/s 598 mmHg 59%

    Depois de amanhã, 19 Janeiro, Sábado

    Tempo Temperatura Precipitação Vento Pressão Humidade
    00:00 -13°C° 0 mm 2 m/s 598 mmHg 58%
    01:00 -13°C° 0 mm 2 m/s 598 mmHg 57%
    02:00 -14°C° 0 mm 2 m/s 598 mmHg 56%
    03:00 -14°C° 0 mm 2 m/s 598 mmHg 55%
    04:00 -14°C° 0 mm 2 m/s 598 mmHg 54%
    05:00 -14°C° 0 mm 2 m/s 598 mmHg 53%
    06:00 -14°C° 0 mm 2 m/s 598 mmHg 53%
    07:00 -13°C° 0 mm 2 m/s 598 mmHg 52%
    08:00 -13°C° 0 mm 2 m/s 599 mmHg 51%
    09:00 -12°C° 0 mm 2 m/s 599 mmHg 50%
    10:00 -9°C° 0 mm 1 m/s 599 mmHg 48%
    11:00 -7°C° 0 mm 1 m/s 599 mmHg 47%
    12:00 -6°C° 0 mm 0 m/s 599 mmHg 45%
    13:00 -6°C° 0 mm 0 m/s 599 mmHg 47%
    14:00 -5°C° 0 mm 0 m/s 598 mmHg 48%
    15:00 -5°C° 0 mm 0 m/s 598 mmHg 49%
    16:00 -7°C° 0 mm 1 m/s 598 mmHg 50%
    17:00 -8°C° 0 mm 1 m/s 598 mmHg 51%
    18:00 -9°C° 0 mm 1 m/s 598 mmHg 52%
    19:00 -10°C° 0 mm 1 m/s 598 mmHg 50%
    20:00 -12°C° 0 mm 2 m/s 598 mmHg 48%
    21:00 -13°C° 0 mm 2 m/s 598 mmHg 46%
    22:00 -13°C° 0 mm 2 m/s 598 mmHg 44%
    23:00 -13°C° 0 mm 2 m/s 598 mmHg 41%

    20 Janeiro, Domingo

    Tempo Temperatura Precipitação Vento Pressão Humidade
    00:00 -13°C° 0 mm 2 m/s 598 mmHg 39%
    01:00 -13°C° 0 mm 2 m/s 598 mmHg 37%
    02:00 -14°C° 0 mm 2 m/s 598 mmHg 35%
    03:00 -14°C° 0 mm 2 m/s 597 mmHg 34%
    04:00 -13°C° 0 mm 2 m/s 597 mmHg 34%
    05:00 -13°C° 0 mm 2 m/s 598 mmHg 34%
    06:00 -11°C° 0 mm 1 m/s 598 mmHg 34%
    07:00 -10°C° 0 mm 1 m/s 598 mmHg 35%
    08:00 -9°C° 0 mm 1 m/s 598 mmHg 36%
    09:00 -9°C° 0 mm 1 m/s 599 mmHg 38%
    10:00 -8°C° 0 mm 1 m/s 599 mmHg 37%
    11:00 -6°C° 0 mm 1 m/s 599 mmHg 36%
    12:00 -5°C° 0 mm 0 m/s 599 mmHg 35%
    13:00 -5°C° 0 mm 0 m/s 599 mmHg 37%
    14:00 -5°C° 0 mm 0 m/s 598 mmHg 40%
    15:00 -5°C° 0 mm 0 m/s 598 mmHg 42%
    16:00 -6°C° 0 mm 1 m/s 598 mmHg 42%
    17:00 -8°C° 0 mm 1 m/s 598 mmHg 42%
    18:00 -9°C° 0 mm 1 m/s 597 mmHg 42%
    19:00 -9°C° 0 mm 1 m/s 598 mmHg 41%
    20:00 -10°C° 0 mm 1 m/s 598 mmHg 41%
    21:00 -10°C° 0 mm 1 m/s 598 mmHg 40%
    22:00 -10°C° 0 mm 1 m/s 598 mmHg 40%
    23:00 -10°C° 0 mm 1 m/s 598 mmHg 39%

    21 Janeiro, Segunda-feira

    Tempo Temperatura Precipitação Vento Pressão Humidade
    00:00 -10°C° 0 mm 1 m/s 598 mmHg 39%
    01:00 -11°C° 0 mm 1 m/s 598 mmHg 39%
    02:00 -11°C° 0 mm 1 m/s 598 mmHg 39%
    03:00 -11°C° 0 mm 1 m/s 598 mmHg 38%
    04:00 -11°C° 0 mm 1 m/s 598 mmHg 39%
    05:00 -11°C° 0 mm 1 m/s 598 mmHg 39%
    06:00 -11°C° 0 mm 1 m/s 597 mmHg 39%
    07:00 -11°C° 0 mm 1 m/s 598 mmHg 40%
    08:00 -10°C° 0 mm 1 m/s 598 mmHg 41%
    09:00 -9°C° 0 mm 1 m/s 599 mmHg 41%
    10:00 -8°C° 0 mm 1 m/s 599 mmHg 41%
    11:00 -7°C° 0 mm 1 m/s 599 mmHg 40%
    12:00 -6°C° 0 mm 0 m/s 599 mmHg 40%
    13:00 -5°C° 0 mm 0 m/s 598 mmHg 42%
    14:00 -5°C° 0 mm 0 m/s 598 mmHg 45%
    15:00 -5°C° 0 mm 0 m/s 598 mmHg 47%
    16:00 -7°C° 0 mm 1 m/s 598 mmHg 48%
    17:00 -8°C° 0 mm 1 m/s 597 mmHg 49%
    18:00 -9°C° 0 mm 1 m/s 597 mmHg 50%
    19:00 -10°C° 0 mm 1 m/s 597 mmHg 50%
    20:00 -10°C° 0 mm 1 m/s 597 mmHg 51%
    21:00 -12°C° 0 mm 2 m/s 597 mmHg 51%
    22:00 -12°C° 0 mm 2 m/s 597 mmHg 51%
    23:00 -13°C° 0 mm 2 m/s 597 mmHg 51%

    22 Janeiro, Terça-feira

    Tempo Temperatura Precipitação Vento Pressão Humidade
    00:00 -13°C° 0 mm 2 m/s 597 mmHg 51%
    01:00 -13°C° 0 mm 2 m/s 597 mmHg 51%
    02:00 -13°C° 0 mm 2 m/s 597 mmHg 51%
    03:00 -13°C° 0 mm 2 m/s 597 mmHg 52%
    04:00 -13°C° 0 mm 2 m/s 597 mmHg 52%
    05:00 -13°C° 0 mm 2 m/s 597 mmHg 52%
    06:00 -14°C° 0 mm 2 m/s 597 mmHg 52%
    07:00 -13°C° 0 mm 2 m/s 597 mmHg 52%
    08:00 -12°C° 0 mm 2 m/s 598 mmHg 52%
    09:00 -10°C° 0 mm 2 m/s 598 mmHg 52%
    10:00 -8°C° 0 mm 1 m/s 598 mmHg 50%
    11:00 -6°C° 0 mm 1 m/s 598 mmHg 48%
    12:00 -4°C° 0 mm 1 m/s 598 mmHg 46%
    13:00 -5°C° 0 mm 0 m/s 598 mmHg 48%
    14:00 -4°C° 0 mm 0 m/s 598 mmHg 49%
    15:00 -4°C° 0 mm 0 m/s 598 mmHg 51%
    16:00 -6°C° 0 mm 1 m/s 597 mmHg 52%
    17:00 -7°C° 0 mm 1 m/s 597 mmHg 54%
    18:00 -8°C° 0 mm 1 m/s 597 mmHg 56%
    19:00 -9°C° 0 mm 1 m/s 597 mmHg 55%
    20:00 -9°C° 0 mm 1 m/s 597 mmHg 55%
    21:00 -10°C° 0 mm 2 m/s 597 mmHg 55%
    22:00 -10°C° 0 mm 2 m/s 598 mmHg 55%
    23:00 -9°C° 0 mm 1 m/s 598 mmHg 55%
    Mostrar mais